MST,Max TemperatureF,Mean TemperatureF,Min TemperatureF,Max Dew PointF,MeanDew PointF,Min DewpointF,Max Humidity, Mean Humidity, Min Humidity, Max Sea Level PressureIn, Mean Sea Level PressureIn, Min Sea Level PressureIn, Max VisibilityMiles, Mean VisibilityMiles, Min VisibilityMiles, Max Wind SpeedMPH, Mean Wind SpeedMPH, Max Gust SpeedMPH,PrecipitationIn, CloudCover, Events, WindDirDegrees
2013-12-1,53,39,24,29,26,19,81,58,35,30.14,29.95,29.73,10,10,10,31,15,43,0.00,1,,282
2013-12-2,58,52,45,29,27,25,49,40,30,29.72,29.55,29.43,10,10,10,39,18,53,0.00,0,,281
2013-12-3,48,29,9,29,14,4,92,67,42,30.00,29.72,29.42,10,3,0,25,14,33,0.03,7,Fog-Snow,335
2013-12-4,9,1,-7,3,-3,-13,88,75,62,30.38,30.00,29.78,10,4,1,29,16,37,0.01,6,Snow,319
2013-12-5,6,-5,-17,-6,-10,-19,92,76,60,30.50,30.38,30.16,10,9,2,8,2,10,T,4,Snow,238
2013-12-6,3,-2,-8,-4,-8,-11,91,82,72,30.58,30.48,30.18,10,8,3,12,5,15,T,5,Snow,107
2013-12-7,10,0,-11,4,-4,-14,90,85,79,30.51,30.19,29.82,10,8,3,17,9,22,0.00,5,,121
2013-12-8,13,5,-3,-1,-5,-11,86,70,53,30.32,30.10,29.77,10,10,5,24,8,32,T,3,Snow,332
2013-12-9,22,4,-15,7,-2,-17,83,64,45,30.33,30.25,30.15,10,10,9,35,14,45,0.00,1,,273
2013-12-10,32,24,15,18,12,5,81,63,45,30.41,30.16,30.02,10,10,7,44,18,55,0.00,4,,297
2013-12-11,34,16,-2,20,9,-4,95,75,54,30.50,30.43,30.35,10,10,10,14,4,17,0.00,0,,41
2013-12-12,52,34,15,22,17,11,69,49,28,30.31,30.15,29.92,10,10,10,16,7,20,0.00,0,,239
2013-12-13,43,31,19,27,21,14,84,64,43,30.18,30.00,29.89,10,10,10,21,9,26,0.00,3,,317
2013-12-14,55,42,30,26,22,19,85,55,24,30.24,30.17,30.10,10,10,10,24,11,31,0.00,3,,278
2013-12-15,,,,,,,,,,30.13,30.04,29.98,10,10,10,27,19,40,0.00,0,,277
2013-12-16,55,46,37,22,20,18,52,37,22,30.19,30.09,30.01,10,10,10,25,18,41,0.00,0,,284
2013-12-17,56,41,25,22,18,14,81,52,22,30.32,30.13,29.87,10,10,6,26,13,40,0.00,0,,282
2013-12-18,62,49,35,26,19,16,70,45,19,29.83,29.74,29.64,10,10,10,24,11,32,0.00,0,,282
2013-12-19,37,24,11,26,17,3,92,76,59,30.07,29.83,29.65,10,9,3,31,13,36,T,7,Rain-Snow,41
2013-12-20,31,20,9,15,9,3,83,66,49,30.05,29.90,29.74,10,10,10,12,3,15,T,2,,314
2013-12-21,32,22,11,24,16,8,92,78,63,30.00,29.79,29.64,10,10,6,20,9,26,T,6,Snow,352
2013-12-22,35,22,8,22,16,5,92,70,47,30.39,30.12,29.99,10,6,1,24,7,29,0.01,6,Snow,7
2013-12-23,32,15,-2,24,8,-5,92,85,77,30.46,30.33,30.09,10,9,2,12,4,14,0.00,4,,106
2013-12-24,46,32,18,32,26,15,89,69,49,30.34,30.14,29.93,10,10,3,30,15,40,T,3,Snow,302
2013-12-25,40,28,15,16,13,9,92,61,29,30.50,30.36,30.19,10,10,10,17,8,24,0.00,0,,281
2013-12-26,51,38,24,16,13,8,63,43,22,30.33,30.24,30.14,10,10,10,16,8,23,0.00,0,,281
2013-12-27,58,40,22,22,20,16,74,49,24,30.26,30.15,29.94,10,10,10,21,7,26,0.00,0,,264
2013-12-28,50,32,13,27,17,4,69,50,31,30.39,30.05,29.84,10,10,10,33,13,41,0.00,3,,330
2013-12-29,37,22,6,15,10,3,80,58,35,30.41,30.22,29.98,10,10,10,18,5,28,0.00,2,,274
2013-12-30,44,37,29,20,17,15,58,47,36,30.22,30.13,30.01,10,10,10,22,10,29,0.00,3,,277
2013-12-31,51,44,37,31,23,19,49,41,32,30.00,29.92,29.86,10,10,10,32,20,49,T,2,Rain,275